Location: Newark
(9.9210°N, 0.2190°W)
Time: 22:07:43
(UTC+00:00)

Hubble Space Telescope - Visible Passes

Search period start: 16 November 2019 00:00
Search period end: 26 November 2019 00:00
Orbit: 536 x 540 km, 28.5° (Epoch: 16 November)

Date Brightness Start Highest point End Pass type
(mag) Time Alt. Az. Time Alt. Az. Time Alt. Az.
16 Nov 3.2 04:56:49 10° SW 04:57:20 10° SSW 04:57:51 10° SSW visible
16 Nov 2.6 18:32:54 10° WNW 18:36:09 22° NNW 18:38:29 14° NNE visible
17 Nov 2.9 18:22:52 10° WNW 18:25:39 17° NNW 18:28:27 10° NNE visible
18 Nov 3.1 18:12:59 10° NW 18:15:11 14° NNW 18:17:24 10° NNE visible
19 Nov 3.2 18:03:22 10° NW 18:04:45 11° NNW 18:06:07 10° N visible
